Flag for Germany Weather past 2 weeks in Nuremberg, Bavaria, Germany

Now
41 °F

Passing clouds.


Feels Like: 39 °F
Forecast: 49 / 68 °F
Wind: 3 mph from East

Location: Nuernberg

Current Time: May 28, 2015 at 4:41:25 AM

Latest Report: May 28, 2015 at 4:20 AM


Visibility: N/A

Pressure: 30.12 "Hg

Humidity: 87%

Dew point: 37 °F

Location of NurembergLocation

Historic Weather in Nuremberg — Graph

°F

Nuremberg temperature yesterday

Maximum temperature yesterday: 55 °F (at 5:20 PM)
Minimum temperature yesterday: 43 °F (at 11:50 PM)
Average temperature yesterday: 50 °F

Past Weeks' High & Low Weather Summary

 TemperatureHumidityPressure
High73 °F (May 18, 3:50 PM)100% (May 21, 2:20 AM)30.33 "Hg (May 21, 2:20 AM)
Low37 °F (May 22, 4:50 AM)27% (May 18, 6:20 PM)29.71 "Hg (May 18, 7:20 PM)
Average56 °F64%30.04 "Hg
* Reported May 13 3:20 AM — May 28 3:20 AM, Nuremberg, Weather by CustomWeather, © 2015

Note: Actual official high and low records may vary slightly from our data, if they occured in-between our weather recording intervals... More about our weather records

Advertising

Nuremberg weather history for previous 24 hours

 ConditionsComfort  
Time TempWeatherWind HumidityBarometerVisibility
3:20 AM
Thu, May 28
41 °FPassing clouds.3 mph87%30.12 "HgN/A
2:50 AM41 °FPassing clouds.5 mph93%30.12 "HgN/A
2:20 AM41 °FPassing clouds.5 mph87%30.15 "HgN/A
1:50 AM41 °FClear.3 mph87%30.15 "Hg10 mi
1:20 AM39 °FClear.5 mph93%30.15 "Hg10 mi
12:50 AM41 °FClear.5 mph87%30.15 "Hg10 mi
12:20 AM41 °FClear.5 mph81%30.15 "Hg10 mi
11:50 PM
Wed, May 27
43 °FClear.1 mph81%30.18 "Hg10 mi
11:20 PM45 °FClear.1 mph76%30.18 "Hg10 mi
10:50 PM45 °FClear.2 mph76%30.18 "Hg10 mi
10:20 PM48 °FClear.2 mph71%30.18 "Hg10 mi
9:50 PM50 °FSunny.2 mph67%30.18 "Hg10 mi
9:20 PM50 °FSunny.1 mph67%30.18 "Hg10 mi
8:50 PM52 °FSunny.2 mph54%30.18 "Hg10 mi
8:20 PM54 °FSunny.2 mph51%30.18 "Hg10 mi
7:50 PM54 °FPassing clouds.3 mph51%30.18 "HgN/A
7:20 PM54 °FPassing clouds.5 mph51%30.18 "HgN/A
6:50 PM54 °FPassing clouds.5 mph51%30.18 "HgN/A
6:20 PM54 °FPassing clouds.5 mph51%30.18 "HgN/A
5:50 PM54 °FPassing clouds.6 mph51%30.21 "HgN/A
5:20 PM55 °FPassing clouds.6 mph47%30.21 "HgN/A
4:50 PM54 °FPassing clouds.9 mph47%30.21 "HgN/A
4:20 PM54 °FPassing clouds.6 mph51%30.21 "HgN/A
3:50 PM54 °FPartly sunny.6 mph47%30.21 "HgN/A
3:20 PM54 °FPartly sunny.6 mph51%30.21 "HgN/A
2:50 PM54 °FPartly sunny.10 mph47%30.21 "HgN/A
2:20 PM54 °FBroken clouds.10 mph47%30.21 "HgN/A
1:50 PM54 °FBroken clouds.9 mph54%30.21 "HgN/A
1:20 PM52 °FPartly sunny.13 mph58%30.21 "HgN/A
12:50 PM52 °FPartly sunny.8 mph58%30.21 "HgN/A
12:20 PM52 °FPartly sunny.10 mph58%30.21 "HgN/A
11:50 AM52 °FPartly sunny.7 mph62%30.21 "HgN/A
11:20 AM52 °FBroken clouds.7 mph62%30.21 "HgN/A
10:50 AM50 °FBroken clouds.6 mph67%30.21 "HgN/A
10:20 AM50 °FPartly sunny.7 mph71%30.21 "HgN/A
9:50 AM50 °FPartly sunny.3 mph71%30.21 "HgN/A
9:20 AM50 °FPartly sunny.6 mph71%30.21 "HgN/A
8:50 AM48 °FPartly sunny.7 mph76%30.21 "HgN/A
8:20 AM48 °FPartly sunny.5 mph82%30.21 "HgN/A
7:50 AM48 °FPassing clouds.5 mph76%30.21 "HgN/A
7:20 AM46 °FSunny.2 mph87%30.21 "Hg10 mi
6:50 AM45 °FSunny.2 mph87%30.21 "Hg10 mi
6:20 AM45 °FScattered clouds.2 mph87%30.18 "HgN/A
5:50 AM45 °FClear.2 mph87%30.18 "Hg10 mi
5:20 AM45 °FPassing clouds.3 mph87%30.18 "HgN/A
4:50 AM46 °FClear.2 mph82%30.18 "Hg10 mi
4:20 AM48 °FClear.1 mph76%30.18 "Hg10 mi
Weather by CustomWeather, © 2015

See weather overviewHow to use our weather pages